H1 CPF 2 NER 2022 8 10 9 222 01 glonass141 H2 1908801 9141 44850 2022 8 10 0 0 0 2022 8 13 23 45 0 900 1 1 0 0 0 1 H9 10 0 59801 0.00000 0 21383974.956 24765.806 -13872052.857 10 0 59801 900.00000 0 19580540.799 527913.765 -16307409.637 10 0 59801 1800.00000 0 17561729.201 1274247.167 -18425250.279 10 0 59801 2700.00000 0 15390976.678 2276564.700 -20184293.433 10 0 59801 3600.00000 0 13134917.966 3535224.291 -21550253.826 10 0 59801 4500.00000 0 10860716.000 5037894.290 -22496516.060 10 0 59801 5400.00000 0 8633386.346 6759850.083 -23004656.664 10 0 59801 6300.00000 0 6513228.406 8664804.805 -23064804.154 10 0 59801 7200.00000 0 4553471.130 10706240.021 -22675830.130 10 0 59801 8100.00000 0 2798231.494 12829181.120 -21845367.911 10 0 59801 9000.00000 0 1280870.632 14972343.265 -20589658.623 10 0 59801 9900.00000 0 22815.554 17070557.968 -18933228.095 10 0 59801 10800.00000 0 -967105.550 19057378.601 -16908401.254 10 0 59801 11700.00000 0 -1692788.195 20867755.524 -14554663.904 10 0 59801 12600.00000 0 -2170433.303 22440668.550 -11917884.840 10 0 59801 13500.00000 0 -2427605.404 23721606.370 -9049414.016 10 0 59801 14400.00000 0 -2501809.086 24664789.073 -6005074.898 10 0 59801 15300.00000 0 -2438645.740 25235040.794 -2844071.377 10 0 59801 16200.00000 0 -2289630.224 25409234.466 372168.871 10 0 59801 17100.00000 0 -2109761.251 25177248.799 3581191.465 10 0 59801 18000.00000 0 -1954949.354 24542398.266 6720729.013 10 0 59801 18900.00000 0 -1879411.962 23521319.117 9729907.541 10 0 59801 19800.00000 0 -1933146.066 22143317.236 12550422.281 10 0 59801 20700.00000 0 -2159585.287 20449206.134 15127660.138 10 0 59801 21600.00000 0 -2593539.968 18489684.400 17411747.772 10 0 59801 22500.00000 0 -3259506.813 16323320.753 19358505.876 10 0 59801 23400.00000 0 -4170418.816 14014230.820 20930292.242 10 0 59801 24300.00000 0 -5326887.839 11629541.947 22096718.610 10 0 59801 25200.00000 0 -6716971.712 9236750.668 22835228.710 10 0 59801 26100.00000 0 -8316476.045 6901081.506 23131527.415 10 0 59801 27000.00000 0 -10089779.027 4682955.313 22979853.637 10 0 59801 27900.00000 0 -11991146.076 2635670.648 22383092.191 10 0 59801 28800.00000 0 -13966481.050 803392.958 21352722.540 10 0 59801 29700.00000 0 -15955442.846 -780466.365 19908605.059 10 0 59801 30600.00000 0 -17893841.020 -2094414.844 18078608.121 10 0 59801 31500.00000 0 -19716212.213 -3129539.954 15898082.078 10 0 59801 32400.00000 0 -21358471.362 -3889639.320 13409188.950 10 0 59801 33300.00000 0 -22760527.984 -4390814.808 10660099.280 10 0 59801 34200.00000 0 -23868758.575 -4660547.416 7704070.361 10 0 59801 35100.00000 0 -24638231.600 -4736291.641 4598422.534 10 0 59801 36000.00000 0 -25034591.146 -4663648.261 1403432.481 10 0 59801 36900.00000 0 -25035519.141 -4494192.467 -1818835.336 10 0 59801 37800.00000 0 -24631713.281 -4283049.199 -5005736.437 10 0 59801 38700.00000 0 -23827338.037 -4086318.732 -8095269.483 10 0 59801 39600.00000 0 -22639928.253 -3958462.208 -11027290.192 10 0 59801 40500.00000 0 -21099747.962 -3949758.969 -13744691.495 10 0 59801 41400.00000 0 -19248630.173 -4103944.720 -16194525.872 10 0 59801 42300.00000 0 -17138345.640 -4456132.114 -18329046.865 10 0 59801 43200.00000 0 -14828568.800 -5031103.419 -20106648.633 10 0 59801 44100.00000 0 -12384525.950 -5842049.039 -21492684.432 10 0 59801 45000.00000 0 -9874424.457 -6889806.681 -22460147.510 10 0 59801 45900.00000 0 -7366770.864 -8162634.547 -22990200.877 10 0 59801 46800.00000 0 -4927690.246 -9636529.230 -23072545.501 10 0 59801 47700.00000 0 -2618359.109 -11276075.687 -22705619.834 10 0 59801 48600.00000 0 -492658.984 -13035794.092 -21896626.993 10 0 59801 49500.00000 0 1404851.709 -14861927.282 -20661389.324 10 0 59801 50400.00000 0 3040563.423 -16694593.728 -19024033.550 10 0 59801 51300.00000 0 4392972.085 -18470215.530 -17016513.023 10 0 59801 52200.00000 0 5453319.649 -20124119.308 -14677976.799 10 0 59801 53100.00000 0 6225693.530 -21593200.473 -12053998.360 10 0 59801 54000.00000 0 6726582.840 -22818538.763 -9195679.551 10 0 59801 54900.00000 0 6983912.287 -23747855.078 -6158647.753 10 0 59801 55800.00000 0 7035596.555 -24337706.350 -3001966.552 10 0 59801 56700.00000 0 6927678.206 -24555326.498 213018.260 10 0 59801 57600.00000 0 6712129.498 -24380036.500 3423874.317 10 0 59801 58500.00000 0 6444412.430 -23804164.992 6568296.106 10 0 59801 59400.00000 0 6180901.171 -22833441.501 9585312.351 10 0 59801 60300.00000 0 5976276.428 -21486846.590 12416463.879 10 0 59801 61200.00000 0 5881001.985 -19795925.999 15006929.299 10 0 59801 62100.00000 0 5938989.780 -17803598.042 17306577.277 10 0 59801 63000.00000 0 6185551.590 -15562504.409 19270925.941 10 0 59801 63900.00000 0 6645723.026 -13132973.184 20861991.862 10 0 59801 64800.00000 0 7333029.864 -10580678.478 22049013.512 10 0 59801 65700.00000 0 8248748.252 -7974093.138 22809036.461 10 0 59801 66600.00000 0 9381689.796 -5381839.238 23127350.109 10 0 59801 67500.00000 0 10708520.995 -2870044.764 22997768.450 10 0 59801 68400.00000 0 12194604.519 -499814.485 22422749.957 10 0 59801 69300.00000 0 13795328.398 1675081.711 21413354.371 10 0 59801 70200.00000 0 15457869.169 3610208.703 19989036.899 10 0 59801 71100.00000 0 17123317.054 5272072.604 18177282.972 10 0 59801 72000.00000 0 18729076.072 6639267.939 16013089.550 10 0 59801 72900.00000 0 20211440.274 7703118.548 13538301.597 10 0 59801 73800.00000 0 21508239.528 8467785.799 10800815.103 10 0 59801 74700.00000 0 22561444.677 8949839.643 7853660.736 10 0 59801 75600.00000 0 23319623.016 9177310.382 4753984.664 10 0 59801 76500.00000 0 23740140.596 9188260.854 1561945.429 10 0 59801 77400.00000 0 23791017.794 9028938.909 -1660452.104 10 0 59801 78300.00000 0 23452358.810 8751588.228 -4850563.148 10 0 59801 79200.00000 0 22717293.275 8412010.237 -7946325.947 10 0 59801 80100.00000 0 21592388.539 8066980.748 -10887476.714 10 0 59801 81000.00000 0 20097513.656 7771631.595 -13616731.989 10 0 59801 81900.00000 0 18265159.148 7576909.200 -16080914.365 10 0 59801 82800.00000 0 16139239.964 7527219.017 -18231998.483 10 0 59801 83700.00000 0 13773431.073 7658356.979 -20028056.062 10 0 59801 84600.00000 0 11229104.952 7995816.885 -21434080.745 10 0 59801 85500.00000 0 8572957.259 8553546.527 -22422676.095 10 0 59802 0.00000 0 5874420.193 9333206.166 -22974593.012 10 0 59802 900.00000 0 3202970.351 10323962.032 -23079106.197 10 0 59802 1800.00000 0 625447.331 11502823.109 -22734221.752 10 0 59802 2700.00000 0 -1796509.896 12835508.843 -21946713.076 10 0 59802 3600.00000 0 -4008798.484 14277810.415 -20731983.775 10 0 59802 4500.00000 0 -5966863.554 15777388.619 -19113761.027 10 0 59802 5400.00000 0 -7637303.074 17275932.445 -17123625.668 10 0 59802 6300.00000 0 -8999000.002 18711587.245 -14800388.586 10 0 59802 7200.00000 0 -10043735.881 20021549.889 -12189326.069 10 0 59802 8100.00000 0 -10776262.145 21144721.351 -9341289.570 10 0 59802 9000.00000 0 -11213828.287 22024304.780 -6311707.746 10 0 59802 9900.00000 0 -11385188.873 22610239.440 -3159500.965 10 0 59802 10800.00000 0 -11329133.455 22861368.095 54069.992 10 0 59802 11700.00000 0 -11092603.320 22747246.746 3266598.037 10 0 59802 12600.00000 0 -10728476.244 22249520.927 6415742.874 10 0 59802 13500.00000 0 -10293114.112 21362811.205 9440439.261 10 0 59802 14400.00000 0 -9843777.830 20095071.249 12282076.895 10 0 59802 15300.00000 0 -9436019.059 18467403.996 14885629.215 10 0 59802 16200.00000 0 -9121158.818 16513344.102 17200709.833 10 0 59802 17100.00000 0 -8943958.863 14277636.823 19182536.995 10 0 59802 18000.00000 0 -8940583.296 11814564.280 20792788.446 10 0 59802 18900.00000 0 -9136935.429 9185888.376 22000331.440 10 0 59802 19800.00000 0 -9547439.145 6458495.027 22781815.055 10 0 59802 20700.00000 0 -10174315.481 3701836.472 23122114.464 10 0 59802 21600.00000 0 -11007384.652 985276.186 23014619.523 10 0 59802 22500.00000 0 -12024402.207 -1624555.191 22461362.647 10 0 59802 23400.00000 0 -13191915.945 -4066285.018 21472983.609 10 0 59802 24300.00000 0 -14466608.958 -6286101.949 20068531.651 10 0 59802 25200.00000 0 -15797074.007 -8239743.313 18275107.927 10 0 59802 26100.00000 0 -17125946.519 -9894085.158 16127354.129 10 0 59802 27000.00000 0 -18392308.414 -11228269.703 13666795.809 10 0 59802 27900.00000 0 -19534263.248 -12234323.722 10941051.623 10 0 59802 28800.00000 0 -20491575.542 -12917242.122 8002922.469 10 0 59802 29700.00000 0 -21208263.812 -13294533.183 4909376.931 10 0 59802 30600.00000 0 -21635038.089 -13395244.335 1720451.810 10 0 59802 31500.00000 0 -21731478.613 -13258509.166 -1501911.342 10 0 59802 32400.00000 0 -21467862.685 -12931676.792 -4695071.177 10 0 59802 33300.00000 0 -20826561.040 -12468102.567 -7796909.235 10 0 59802 34200.00000 0 -19802943.183 -11924693.938 -10747045.829 10 0 59802 35100.00000 0 -18405751.531 -11359315.762 -13488024.553 10 0 59802 36000.00000 0 -16656926.689 -10828165.697 -15966441.277 10 0 59802 36900.00000 0 -14590889.761 -10383231.945 -18133994.541 10 0 59802 37800.00000 0 -12253310.532 -10069942.061 -19948435.942 10 0 59802 38700.00000 0 -9699412.230 -9925103.465 -21374401.261 10 0 59802 39600.00000 0 -6991883.413 -9975223.823 -22384105.471 10 0 59802 40500.00000 0 -4198484.005 -10235283.176 -22957887.841 10 0 59802 41400.00000 0 -1389445.410 -10708010.395 -23084596.354 10 0 59802 42300.00000 0 1365226.650 -11383694.945 -22761804.033 10 0 59802 43200.00000 0 3998434.113 -12240542.125 -21995853.146 10 0 59802 44100.00000 0 6448541.679 -13245556.797 -20801726.708 10 0 59802 45000.00000 0 8661698.756 -14355918.117 -19202750.130 10 0 59802 45900.00000 0 10593832.088 -15520786.987 -17230129.217 10 0 59802 46800.00000 0 12212226.850 -16683469.514 -14922333.924 10 0 59802 47700.00000 0 13496631.420 -17783844.775 -12324340.387 10 0 59802 48600.00000 0 14439841.310 -18760953.924 -9486746.537 10 0 59802 49500.00000 0 15047739.702 -19555641.034 -6464779.067 10 0 59802 50400.00000 0 15338794.975 -20113133.838 -3317211.820 10 0 59802 51300.00000 0 15343038.538 -20385455.370 -105217.267 10 0 59802 52200.00000 0 15100568.085 -20333564.717 3108825.989 10 0 59802 53100.00000 0 14659641.203 -19929136.813 6262545.908 10 0 59802 54000.00000 0 14074441.275 -19155906.610 9294786.049 10 0 59802 54900.00000 0 13402611.033 -18010521.429 12146787.423 10 0 59802 55800.00000 0 12702658.430 -16502866.093 14763320.371 10 0 59802 56700.00000 0 12031344.361 -14655847.519 17093745.109 10 0 59802 57600.00000 0 11441162.005 -12504647.858 19092981.240 10 0 59802 58500.00000 0 10978013.263 -10095477.303 20722368.495 10 0 59802 59400.00000 0 10679179.146 -7483878.051 21950403.326 10 0 59802 60300.00000 0 10571668.449 -4732649.126 22753338.353 10 0 59802 61200.00000 0 10671013.192 -1909477.149 23115634.217 10 0 59802 62100.00000 0 10980560.760 915630.167 23030256.042 10 0 59802 63000.00000 0 11491292.204 3673003.154 22498809.339 10 0 59802 63900.00000 0 12182174.505 6295953.483 21531512.873 10 0 59802 64800.00000 0 13021032.714 8723293.889 20147008.719 10 0 59802 65700.00000 0 13965906.443 10901631.472 18372012.427 10 0 59802 66600.00000 0 14966835.096 12787340.609 16240808.982 10 0 59802 67500.00000 0 15967998.338 14348134.488 13794602.965 10 0 59802 68400.00000 0 16910123.211 15564170.408 11080734.013 10 0 59802 69300.00000 0 17733057.722 16428642.875 8151771.420 10 0 59802 70200.00000 0 18378403.236 16947839.657 5064504.201 10 0 59802 71100.00000 0 18792094.887 17140658.183 1878845.271 10 0 59802 72000.00000 0 18926820.771 17037602.212 -1343329.413 10 0 59802 72900.00000 0 18744176.837 16679300.727 -4539384.309 10 0 59802 73800.00000 0 18216465.081 16114611.351 -7647146.661 10 0 59802 74700.00000 0 17328057.400 15398388.451 -10606123.256 10 0 59802 75600.00000 0 16076265.508 14589010.559 -13358686.989 10 0 59802 76500.00000 0 14471678.308 13745772.306 -15851209.142 10 0 59802 77400.00000 0 12537950.513 12926251.889 -18035114.118 10 0 59802 78300.00000 0 10311049.812 12183766.411 -19867835.206 10 0 59802 79200.00000 0 7837992.939 11565023.724 -21313651.976 10 0 59802 80100.00000 0 5175122.615 11108070.799 -22344392.336 10 0 59802 81000.00000 0 2385996.903 10840626.058 -22939985.257 10 0 59802 81900.00000 0 -461021.201 10778866.586 -23088853.290 10 0 59802 82800.00000 0 -3295373.327 10926721.669 -22788137.254 10 0 59802 83700.00000 0 -6047005.698 11275702.447 -22043748.922 10 0 59802 84600.00000 0 -8649047.021 11805274.607 -20870250.973 10 0 59802 85500.00000 0 -11040352.777 12483757.930 -19290566.887 10 0 59803 0.00000 0 -13167810.106 13269714.052 -17335527.023 10 0 59803 900.00000 0 -14988308.881 14113763.566 -15043259.015 10 0 59803 1800.00000 0 -16470294.852 14960753.929 -12458437.579 10 0 59803 2700.00000 0 -17594845.056 15752187.269 -9631405.354 10 0 59803 3600.00000 0 -18356219.204 16428803.810 -6617184.999 10 0 59803 4500.00000 0 -18761866.941 16933211.598 -3474401.515 10 0 59803 5400.00000 0 -18831892.529 17212450.940 -264136.532 10 0 59803 6300.00000 0 -18598001.481 17220384.983 2951262.558 10 0 59803 7200.00000 0 -18101975.376 16919815.468 6109394.856 10 0 59803 8100.00000 0 -17393740.807 16284234.499 9149015.748 10 0 59803 9000.00000 0 -16529115.092 15299138.735 12011220.684 10 0 59803 9900.00000 0 -15567324.613 13962850.994 14640580.065 10 0 59803 10800.00000 0 -14568400.649 12286814.960 16986203.832 10 0 59803 11700.00000 0 -13590562.192 10295350.686 19002715.954 10 0 59803 12600.00000 0 -12687695.243 8024880.971 20651120.965 10 0 59803 13500.00000 0 -11907033.604 5522660.413 21899547.048 10 0 59803 14400.00000 0 -11287137.406 2845059.205 22723852.560 10 0 59803 15300.00000 0 -10856253.054 55471.894 23108085.402 10 0 59803 16200.00000 0 -10631122.290 -2778063.585 23044787.298 10 0 59803 17100.00000 0 -10616289.548 -5585439.616 22535137.705 10 0 59803 18000.00000 0 -10803936.267 -8297140.459 21588934.713 10 0 59803 18900.00000 0 -11174249.149 -10846883.193 20224413.033 10 0 59803 19800.00000 0 -11696307.445 -13174130.292 18467901.881 10 0 59803 20700.00000 0 -12329452.886 -15226370.878 16353328.282 10 0 59803 21600.00000 0 -13025085.800 -16961076.976 13921574.107 10 0 59803 22500.00000 0 -13728813.081 -18347254.027 11219697.788 10 0 59803 23400.00000 0 -14382858.618 -19366521.175 8300034.448 10 0 59803 24300.00000 0 -14928635.376 -20013676.141 5219190.636 10 0 59803 25200.00000 0 -15309370.958 -20296720.673 2036952.229 10 0 59803 26100.00000 0 -15472675.609 -20236344.996 -1184873.768 10 0 59803 27000.00000 0 -15372943.438 -19864892.395 -4383661.117 10 0 59803 27900.00000 0 -14973484.140 -19224847.242 -7497186.361 10 0 59803 28800.00000 0 -14248293.523 -18366910.018 -10464846.385 10 0 59803 29700.00000 0 -13183386.090 -17347740.639 -13228847.003 10 0 59803 30600.00000 0 -11777631.312 -16227465.685 -15735338.379 10 0 59803 31500.00000 0 -10043056.313 -15067055.434 -17935474.001 10 0 59803 32400.00000 0 -8004600.352 -13925682.329 -19786371.723 10 0 59803 33300.00000 0 -5699329.730 -12858173.131 -21251957.317 10 0 59803 34200.00000 0 -3175144.854 -11912663.118 -22303673.473 10 0 59803 35100.00000 0 -489032.644 -11128551.909 -22921040.122 10 0 59803 36000.00000 0 2295063.278 -10534847.445 -23092055.024 10 0 59803 36900.00000 0 5108665.916 -10148968.130 -22813426.848 10 0 59803 37800.00000 0 7881380.796 -9976053.395 -22090636.405 10 0 59803 38700.00000 0 10543595.460 -10008811.264 -20937825.109 10 0 59803 39600.00000 0 13029149.967 -10227908.662 -19377513.170 10 0 59803 40500.00000 0 15277867.319 -10602887.056 -17440153.405 10 0 59803 41400.00000 0 17237838.652 -11093563.776 -15163529.767 10 0 59803 42300.00000 0 18867368.349 -11651858.742 -12592012.801 10 0 59803 43200.00000 0 20136498.811 -12223968.358 -9775687.070 10 0 59803 44100.00000 0 21028052.348 -12752793.691 -6769368.102 10 0 59803 45000.00000 0 21538148.021 -13180519.397 -3631528.683 10 0 59803 45900.00000 0 21676173.570 -13451233.643 -423156.039 10 0 59803 46800.00000 0 21464215.456 -13513477.780 2793437.283 10 0 59803 47700.00000 0 20935972.803 -13322617.713 5955825.108 10 0 59803 48600.00000 0 20135202.668 -12842936.762 9002678.063 10 0 59803 49500.00000 0 19113763.447 -12049361.761 11874949.156 10 0 59803 50400.00000 0 17929339.790 -10928749.878 14517011.601 10 0 59803 51300.00000 0 16642945.286 -9480682.158 16877727.401 10 0 59803 52200.00000 0 15316307.914 -7717730.518 18911426.773 10 0 59803 53100.00000 0 14009247.681 -5665186.869 20578780.484 10 0 59803 54000.00000 0 12777155.639 -3360265.245 21847549.433 10 0 59803 54900.00000 0 11668678.783 -850809.381 22693198.273 10 0 59803 55800.00000 0 10723706.540 1806441.535 23099362.315 10 0 59803 56700.00000 0 9971741.817 4547958.330 23058159.661 10 0 59803 57600.00000 0 9430723.604 7305812.899 22570343.133 10 0 59803 58500.00000 0 9106349.567 10010257.459 21645289.244 10 0 59803 59400.00000 0 8991926.499 12592386.956 20300824.163 10 0 59803 60300.00000 0 9068754.805 14986775.995 18562889.335 10 0 59803 61200.00000 0 9307031.278 17133982.284 16465052.183 10 0 59803 62100.00000 0 9667232.892 18982813.746 14047870.031 10 0 59803 63000.00000 0 10101924.305 20492265.711 11358118.092 10 0 59803 63900.00000 0 10557913.851 21633047.637 8447895.136 10 0 59803 64800.00000 0 10978667.878 22388635.532 5373622.922 10 0 59803 65700.00000 0 11306881.946 22755805.603 2194957.823 10 0 59803 66600.00000 0 11487100.288 22744626.046 -1026364.638 10 0 59803 67500.00000 0 11468272.267 22377906.687 -4227730.115 10 0 59803 68400.00000 0 11206136.724 21690128.976 -7346866.989 10 0 59803 69300.00000 0 10665331.904 20725900.855 -10323064.686 10 0 59803 70200.00000 0 9821139.988 19538001.582 -13098364.212 10 0 59803 71100.00000 0 8660790.424 18185098.843 -15618696.696 10 0 59803 72000.00000 0 7184264.970 16729234.800 -17834946.612 10 0 59803 72900.00000 0 5404568.471 15233187.727 -19703918.079 10 0 59803 73800.00000 0 3347452.115 13757821.087 -21189184.605 10 0 59803 74700.00000 0 1050599.304 12359532.466 -22261805.047 10 0 59803 75600.00000 0 -1437693.015 11087910.282 -22900891.510 10 0 59803 76500.00000 0 -4060283.204 9983697.281 -23094018.003 10 0 59803 77400.00000 0 -6753330.526 9077146.636 -22837461.850 10 0 59803 78300.00000 0 -9448728.161 8386839.509 -22136273.417 10 0 59803 79200.00000 0 -12076722.255 7919013.248 -21004173.021 10 0 59803 80100.00000 0 -14568607.698 7667427.612 -19463277.385 10 0 59803 81000.00000 0 -16859388.241 7613773.494 -17543661.370 10 0 59803 81900.00000 0 -18890290.139 7728605.579 -15282763.916 10 0 59803 82800.00000 0 -20611024.593 7972758.190 -12724650.253 10 0 59803 83700.00000 0 -21981705.102 8299183.103 -9919145.299 10 0 59803 84600.00000 0 -22974340.360 8655130.322 -6920855.631 10 0 59803 85500.00000 0 -23573841.285 8984578.405 -3788099.804 10 0 59804 0.00000 0 -23778501.396 9230810.503 -581768.726 10 0 59804 900.00000 0 -23599932.005 9339026.471 2635862.885 10 0 59804 1800.00000 0 -23062456.384 9258879.753 5802345.886 10 0 59804 2700.00000 0 -22201990.387 8946831.975 8856268.935 10 0 59804 3600.00000 0 -21064457.614 8368225.353 11738445.548 10 0 59804 4500.00000 0 -19703807.055 7498985.773 14393054.816 10 0 59804 5400.00000 0 -18179717.147 6326884.901 16768713.888 10 0 59804 6300.00000 0 -16555082.853 4852308.341 18819462.266 10 0 59804 7200.00000 0 -14893390.903 3088497.547 20505639.810 10 0 59804 8100.00000 0 -13256092.447 1061255.036 21794642.745 10 0 59804 9000.00000 0 -11700081.947 -1191875.507 22661544.287 10 0 59804 9900.00000 0 -10275386.426 -3622921.002 23089569.027 10 0 59804 10800.00000 0 -9023160.116 -6175229.430 23070412.869 10 0 59804 11700.00000 0 -7974066.856 -8785587.912 22604402.969 10 0 59804 12600.00000 0 -7147116.585 -11386622.209 21700494.752 10 0 59804 13500.00000 0 -6549003.595 -13909380.010 20376105.857 10 0 59804 14400.00000 0 -6173973.660 -16285992.600 18656789.504 10 0 59804 15300.00000 0 -6004225.457 -18452305.899 16575752.588 10 0 59804 16200.00000 0 -6010829.634 -20350372.780 14173226.525 10 0 59804 17100.00000 0 -6155127.402 -21930703.755 11495701.549 10 0 59804 18000.00000 0 -6390550.455 -23154182.473 8595037.961 10 0 59804 18900.00000 0 -6664786.107 -23993565.967 5527470.299 10 0 59804 19800.00000 0 -6922196.741 -24434506.381 2352522.761 10 0 59804 20700.00000 0 -7106391.460 -24476050.534 -868143.517 10 0 59804 21600.00000 0 -7162840.862 -24130595.479 -4071929.154 10 0 59804 22500.00000 0 -7041423.556 -23423300.930 -7196517.593 10 0 59804 23400.00000 0 -6698795.414 -22390982.621 -10181094.139 10 0 59804 24300.00000 0 -6100479.707 -21080532.550 -12967538.391 10 0 59804 25200.00000 0 -5222587.844 -19546932.331 -15501565.811 10 0 59804 26100.00000 0 -4053095.962 -17850943.484 -17733795.106 10 0 59804 27000.00000 0 -2592621.459 -16056572.172 -19620719.686 10 0 59804 27900.00000 0 -854664.770 -14228415.583 -21125563.473 10 0 59804 28800.00000 0 1134695.442 -12429002.170 -22219003.740 10 0 59804 29700.00000 0 3337642.324 -10716238.024 -22879746.538 10 0 59804 30600.00000 0 5705962.025 -9141067.015 -23094943.364 10 0 59804 31500.00000 0 8182830.512 -7745443.082 -22860440.945 10 0 59804 32400.00000 0 10704971.830 -6560699.556 -22180859.467 10 0 59804 33300.00000 0 13205097.797 -5606383.378 -21069497.977 10 0 59804 34200.00000 0 15614527.198 -4889602.260 -19548069.126 10 0 59804 35100.00000 0 17865875.119 -4404910.941 -17646268.838 10 0 59804 36000.00000 0 19895700.039 -4134739.803 -15401189.630 10 0 59804 36900.00000 0 21646998.093 -4050346.124 -12856589.584 10 0 59804 37800.00000 0 23071440.487 -4113246.121 -10062031.681 10 0 59804 38700.00000 0 24131260.931 -4277065.603 -7071910.833 10 0 59804 39600.00000 0 24800714.743 -4489729.502 -3944388.252 10 0 59804 40500.00000 0 25067049.492 -4695896.318 -740254.530 10 0 59804 41400.00000 0 24930947.733 -4839533.394 2478255.890 10 0 59804 42300.00000 0 24406424.579 -4866523.301 5648675.158 10 0 59804 43200.00000 0 23520185.878 -4727190.583 8709513.564 10 0 59804 44100.00000 0 22310475.271 -4378641.845 11601448.563 10 0 59804 45000.00000 0 20825459.658 -3786820.420 14268468.272 10 0 59804 45900.00000 0 19121221.591 -2928189.065 16658947.801 10 0 59804 46800.00000 0 17259443.122 -1790970.019 18726638.358 10 0 59804 47700.00000 0 15304877.987 -375890.372 20431550.932 10 0 59804 48600.00000 0 13322717.322 1303598.659 21740718.698 10 0 59804 49500.00000 0 11375957.913 3221638.248 22628824.649 10 0 59804 50400.00000 0 9522881.588 5340801.808 23078683.447 10 0 59804 51300.00000 0 7814749.312 7613424.362 23081569.170 10 0 59804 52200.00000 0 6293804.535 9983367.660 22637383.243 10 0 59804 53100.00000 0 4991667.559 12388149.298 21754659.512 10 0 59804 54000.00000 0 3928186.619 14761349.277 20450406.181 10 0 59804 54900.00000 0 3110792.629 17035195.834 18749786.951 10 0 59804 55800.00000 0 2534384.024 19143224.654 16685646.567 10 0 59804 56700.00000 0 2181746.285 21022902.208 14297888.608 10 0 59804 57600.00000 0 2024488.637 22618104.881 11632716.150 10 0 59804 58500.00000 0 2024458.927 23881350.842 8741748.627 10 0 59804 59400.00000 0 2135577.546 24775691.415 5681030.789 10 0 59804 60300.00000 0 2306013.399 25276182.255 2509951.950 10 0 59804 61200.00000 0 2480610.233 25370871.806 -709903.942 10 0 59804 62100.00000 0 2603460.558 25061264.451 -3915955.281 10 0 59804 63000.00000 0 2620517.691 24362237.711 -7045843.350 10 0 59804 63900.00000 0 2482134.370 23301415.902 -10038651.990 10 0 59804 64800.00000 0 2145419.125 21918025.677 -12836101.854 10 0 59804 65700.00000 0 1576308.974 20261280.966 -15383695.011 10 0 59804 66600.00000 0 751268.977 18388364.907 -17631786.444 10 0 59804 67500.00000 0 -341455.200 16362093.635 -19536560.659 10 0 59804 68400.00000 0 -1701086.414 14248360.461 -21060893.608 10 0 59804 69300.00000 0 -3314100.270 12113468.086 -22175082.388 10 0 59804 70200.00000 0 -5154555.034 10021461.260 -22857428.202 10 0 59804 71100.00000 0 -7184954.610 8031572.064 -23094661.030 10 0 59804 72000.00000 0 -9357609.228 6195885.078 -22882197.724 10 0 59804 72900.00000 0 -11616437.414 4557320.121 -22224228.703 10 0 59804 73800.00000 0 -13899134.139 3148016.512 -21133631.799 10 0 59804 74700.00000 0 -16139614.427 1988185.795 -19631715.261 10 0 59804 75600.00000 0 -18270630.172 1085479.704 -17747795.349 10 0 59804 76500.00000 0 -20226450.593 434898.368 -15518617.087 10 0 59804 77400.00000 0 -21945493.971 19240.807 -12987630.015 10 0 59804 78300.00000 0 -23372800.549 -189923.200 -10204133.527 10 0 59804 79200.00000 0 -24462243.144 -230802.821 -7222309.003 10 0 59804 80100.00000 0 -25178383.189 -149520.522 -4100158.261 10 0 59804 81000.00000 0 -25497894.984 2088.413 -898369.633 10 0 59804 81900.00000 0 -25410499.288 168916.716 2320865.700 10 0 59804 82800.00000 0 -24919368.067 295161.992 5495063.479 10 0 59804 83700.00000 0 -24040984.611 326929.876 8562658.398 10 0 59804 84600.00000 0 -22804466.017 214752.964 11464194.754 10 0 59804 85500.00000 0 -21250377.510 -84080.937 14143472.687 99